Regional Weather Roundup
Issued by NWS

Home | Current Version | Previous Version | Graphics & Text | Print | Product List | Glossary On
Versions: 1 2 3 4 5 6 7 8 9 10 11 12 13 14 15 16 17 18 19 20 21 22 23 24 25 26 27 28 29 30 31 32 33 34 35 36 37 38 39 40 41 42 43 44 45 46 47 48 49 50
000
ASUS43 KLSX 250810
RWRMO

WEATHER SUMMARY FOR MISSOURI
NATIONAL WEATHER SERVICE SPRINGFIELD MO
200 AM CST SAT FEB 25 2017

NOTE: "FAIR" INDICATES FEW OR NO CLOUDS BELOW 12,000 FEET WITH NO
       SIGNIFICANT WEATHER AND/OR OBSTRUCTIONS TO VISIBILITY.
       CURRENT SKY AND/OR WEATHER CONDITIONS ARE NOT AVAILABLE FOR
       CHILLICOTHE AND FARMINGTON.

MOZ001>031-035>038-043-044-053-054-250900-
...NORTHERN AND WESTERN MISSOURI...

CITY           SKY/WX    TMP DP  RH WIND       PRES   REMARKS
KANSAS CTY INT CLOUDY    26  19  74 NW13      30.07S WCI  15
KANSAS C DTWN  CLOUDY    28  18  66 W12       30.08F WCI  18
LEE`S SUMMIT   CLOUDY    27  18  69 NW13      30.07S WCI  16
ST JOSEPH      CLOUDY    27  20  75 NW15G23   30.09R WCI  15
CHILLICOTHE      N/A     26  17  68 NW14G20   30.03R WCI  14
KIRKSVILLE     PTCLDY    23  16  74 NW13G21   29.94R WCI  11

$$
MOZ066>068-077>081-088>096-101>105-250900-
...SOUTHWEST MISSOURI...

CITY           SKY/WX    TMP DP  RH WIND       PRES   REMARKS
SPRINGFIELD    CLOUDY    27  17  66 NW18G26   30.06R WCI  14
JOPLIN         CLEAR     27  17  66 NW14      30.15R WCI  16
BRANSON        CLOUDY    28  18  64 NW17G28   30.06R WCI  16

$$
MOZ032>034-039>042-045>050-055>058-069>072-250900-
...CENTRAL MISSOURI...

CITY           SKY/WX    TMP DP  RH WIND       PRES   REMARKS
COLUMBIA       CLOUDY    27  18  69 W17G29    29.98R WCI  14
JEFFERSON CITY CLOUDY    28  17  63 W22       30.01R WCI  14
ROLLA          CLOUDY    26  16  65 W23       29.95R WCI  11
SEDALIA        CLEAR     25  17  72 W16G22    30.04R WCI  12
WHITEMAN AFB   CLEAR     25  17  73 NW13      30.04R WCI  14
WARRENSBURG    MOCLDY    27  18  69 NW13      30.07S WCI  16
OSAGE BEACH    CLOUDY    28  17  63 W17G24    30.04R WCI  16

$$
MOZ051-052-059>065-250900-
...EAST CENTRAL MISSOURI...

CITY           SKY/WX    TMP DP  RH WIND       PRES   REMARKS
ST LOUIS INTL  CLOUDY    32  18  56 W25G41    29.89R WCI  19
SPIRIT OF STL  CLOUDY    32  20  61 W18G29    29.91R WCI  20
ST CHARLES     CLOUDY    31  19  61 W26G37    29.89R WCI  17

$$
MOZ072>076-082>087-097>100-106>115-250900-
...SOUTH CENTRAL AND SOUTHEAST MISSOURI...

CITY           SKY/WX    TMP DP  RH WIND       PRES   REMARKS
CAPE GIRARDEAU MOCLDY    38  24  57 NW17G29   29.89R WCI  28
FARMINGTON     CLOUDY    30  19  63 W18G30    29.91R WCI  18
POPLAR BLUFF   CLEAR     37  23  56 NW15G22   29.93R WCI  28
WEST PLAINS    MOCLDY    30  18  60 NW14G28   29.98R WCI  19

$$




USA.gov is the U.S. government's official web portal to all federal, state and local government web resources and services.